Mosinee, WI

1:29 AM CST on January 21, 2017 (GMT -0600)
Mosinee

Weather History for KCWA - February, 2014

Change the Weather History Date:

Saturday, February 22, 2014

  Actual Average Record
Temperature  
Mean Temperature 10 °F -  
Max Temperature 15 °F 28 °F 44 °F (1998)
Min Temperature 5 °F 11 °F -7 °F (2001)
Degree Days  
Heating Degree Days 54    
Moisture  
Dew Point 6 °F    
Average Humidity 82    
Maximum Humidity 92    
Minimum Humidity 68    
Precipitation  
Precipitation 0.00 in - - ()
Sea Level Pressure  
Sea Level Pressure 29.81 in    
Wind  
Wind Speed 17 mph (West)    
Max Wind Speed 22 mph    
Max Gust Speed 28 mph    
Visibility 8 miles    
Events Snow    
Averages and records for this station are not official NWS values.
T = Trace of Precipitation, MM = Missing Value Source: NWS Daily Summary

Daily Weather History Graph

Daily Weather History Graph

Search for Another Location

Airport or City:

Trip Planner

Search our weather history database for the weather conditions in past years. The results will help you decide how hot, cold, wet, or windy it might be!

Date:

Astronomy

Feb. 22, 2014 Rise Set
Actual Time 6:48 AM CST 5:36 PM CST
Civil Twilight 6:18 AM CST 6:06 PM CST
Nautical Twilight 5:44 AM CST 6:40 PM CST
Astronomical Twilight 5:10 AM CST 7:14 PM CST
Moon 12:49 AM CST (2/22) 10:41 AM CST (2/22)
Length of Visible Light 11h 48m
Length of Day
10h 48m
Waning Gibbous, 50% of the Moon is Illuminated
Feb 22
Waning Gibbous
Mar 1
New
Mar 8
First Quarter
Mar 16
Full
Mar 23
Last Quarter

Hourly Weather History & Observations

Time (CST) Temp. Windchill Dew Point Humidity Pressure Visibility Wind Dir Wind Speed Gust Speed Precip Events Conditions
12:15 AM 12.2 °F -5.8 °F 8.6 °F 85% 29.62 in 7.0 mi West 19.6 mph 27.6 mph N/A Snow Light Snow
12:35 AM 12.2 °F -4.3 °F 8.6 °F 85% 29.62 in 7.0 mi West 16.1 mph 27.6 mph N/A   Overcast
12:55 AM 12.2 °F -5.3 °F 8.6 °F 85% 29.63 in 7.0 mi West 18.4 mph 25.3 mph N/A   Overcast
1:15 AM 12.2 °F -5.3 °F 8.6 °F 85% 29.63 in 5.0 mi West 18.4 mph 26.5 mph N/A Snow Light Snow
1:35 AM 12.2 °F -3.1 °F 8.6 °F 85% 29.65 in 7.0 mi West 13.8 mph - N/A Snow Light Snow
1:55 AM 12.2 °F -4.3 °F 8.6 °F 85% 29.65 in 5.0 mi West 16.1 mph 23.0 mph N/A   Overcast
2:15 AM 12.2 °F -4.3 °F 8.6 °F 85% 29.65 in 5.0 mi West 16.1 mph 24.2 mph N/A Snow Light Snow
2:35 AM 10.4 °F -9.1 °F 8.6 °F 92% 29.66 in 4.0 mi West 21.9 mph 26.5 mph N/A Snow Light Snow
2:55 AM 10.4 °F -8.2 °F 8.6 °F 92% 29.67 in 5.0 mi West 19.6 mph 24.2 mph N/A Snow Light Snow
3:15 AM 10.4 °F -6.6 °F 8.6 °F 92% 29.68 in 5.0 mi West 16.1 mph 25.3 mph N/A Snow Light Snow
3:35 AM 10.4 °F -6.6 °F 6.8 °F 85% 29.68 in 5.0 mi West 16.1 mph 25.3 mph N/A   Overcast
3:55 AM 10.4 °F -8.2 °F 6.8 °F 85% 29.68 in 4.0 mi West 19.6 mph 26.5 mph N/A Snow Light Snow
4:15 AM 10.4 °F -7.2 °F 6.8 °F 85% 29.69 in 7.0 mi West 17.3 mph 25.3 mph N/A   Overcast
4:35 AM 10.4 °F -6.0 °F 6.8 °F 85% 29.70 in 5.0 mi West 15.0 mph 20.7 mph N/A   Overcast
6:45 AM 6.8 °F -10.7 °F 3.2 °F 85% 29.75 in 10.0 mi West 15.0 mph 24.2 mph N/A   Overcast
7:50 AM 6.8 °F -10.7 °F 3.2 °F 85% 29.79 in 10.0 mi West 15.0 mph 24.2 mph N/A   Scattered Clouds
8:45 AM 8.6 °F -8.3 °F 3.2 °F 79% 29.81 in 10.0 mi WSW 15.0 mph 20.7 mph N/A   Partly Cloudy
9:52 AM 10.4 °F -7.2 °F 3.2 °F 73% 29.82 in 10.0 mi West 17.3 mph 24.2 mph N/A   Clear
10:52 AM 12.2 °F -1.8 °F 5.0 °F 73% 29.83 in 10.0 mi West 11.5 mph - N/A   Clear
11:45 AM 14.0 °F -2.0 °F 6.8 °F 73% 29.84 in 10.0 mi West 16.1 mph 24.2 mph N/A   Clear
12:45 PM 15.8 °F -1.1 °F 6.8 °F 68% 29.82 in 10.0 mi West 19.6 mph 27.6 mph N/A   Clear
1:45 PM 15.8 °F -0.6 °F 8.6 °F 73% 29.83 in 10.0 mi WSW 18.4 mph 23.0 mph N/A   Clear
2:50 PM 15.8 °F -0.2 °F 8.6 °F 73% 29.84 in 10.0 mi WSW 17.3 mph 24.2 mph N/A   Clear
3:45 PM 15.8 °F -1.9 °F 8.6 °F 73% 29.85 in 10.0 mi WSW 21.9 mph 26.5 mph N/A   Scattered Clouds
4:50 PM 15.8 °F -0.6 °F 8.6 °F 73% 29.87 in 10.0 mi West 18.4 mph 24.2 mph N/A   Mostly Cloudy
5:50 PM 12.2 °F -3.1 °F 6.8 °F 79% 29.88 in 10.0 mi West 13.8 mph 23.0 mph N/A   Scattered Clouds
6:45 PM 10.4 °F -6.0 °F 6.8 °F 85% 29.90 in 10.0 mi West 15.0 mph 19.6 mph N/A   Scattered Clouds
7:45 PM 10.4 °F -5.4 °F 5.0 °F 79% 29.92 in 10.0 mi WSW 13.8 mph 20.7 mph N/A   Clear
8:45 PM 8.6 °F -7.7 °F 3.2 °F 79% 29.95 in 10.0 mi West 13.8 mph - N/A   Clear
9:15 PM 8.6 °F -7.7 °F 5.0 °F 85% 29.96 in 10.0 mi West 13.8 mph 20.7 mph N/A   Clear
9:35 PM 8.6 °F -8.3 °F 5.0 °F 85% 29.96 in 10.0 mi West 15.0 mph 19.6 mph N/A   Clear
9:45 PM 8.6 °F -7.7 °F 3.2 °F 79% 29.96 in 10.0 mi West 13.8 mph 18.4 mph N/A   Clear
9:55 PM 8.6 °F -7.0 °F 5.0 °F 85% 29.96 in 10.0 mi West 12.7 mph 18.4 mph N/A   Clear
10:15 PM 8.6 °F -8.3 °F 3.2 °F 79% 29.96 in 10.0 mi WSW 15.0 mph - N/A   Clear
10:35 PM 8.6 °F -6.3 °F 3.2 °F 79% 29.96 in 10.0 mi West 11.5 mph 19.6 mph N/A   Clear
10:55 PM 8.6 °F -6.3 °F 3.2 °F 79% 29.96 in 10.0 mi West 11.5 mph - N/A   Clear
11:15 PM 6.8 °F -8.6 °F 3.2 °F 85% 29.96 in 10.0 mi West 11.5 mph 17.3 mph N/A   Clear
11:35 PM 6.8 °F -8.6 °F 3.2 °F 85% 29.96 in 10.0 mi West 11.5 mph - N/A   Clear
11:55 PM 5.0 °F -11.6 °F 1.4 °F 85% 29.97 in 10.0 mi West 12.7 mph 18.4 mph N/A   Clear